User: anonymous   Login
Location: Churchill
(58.7670°N, 94.1670°W)
Time: 18:26:15
(UTC-05:00)
Language:

Cosmos 2142 Rocket - Orbit

View from above orbital plane
View from above orbital plane
View from above satellite
View from above satellite

Ground track
Ground track

The orbit data is extracted from the following two-line orbital elements,

1 21231U 91029B   16144.79073554 +.00000075 +00000-0 +61808-4 0  9995
2 21231 082.9541 037.1080 0033782 236.7363 184.9735 13.75715326259982
Epoch (UTC): 23 May 2016 18:58:39
Eccentricity: 0.0033782
inclination: 82.9541°
perigee height: 954 km
apogee height: 1004 km
right ascension of ascending node: 37.1080°
argument of perigee: 236.7363°
revolutions per day: 13.75715326
mean anomaly at epoch: 184.9735°
orbit number at epoch: 25998

The dashed part of the orbit path shows where the satellite is in the earth's shadow,  

DLR